Location: Charbonni�res
(45.9952°N, 2.9982°E)
Time: 17:47:03
(UTC+00:00)

MOS 1-B - Pass Details

Date: 29 November 2020
Orbit: 905 x 914 km, 99.4° (Epoch: 23 January)

Event Time Altitude Azimuth Distance (km) Brightness Sun altitude
Rises 06:00:04 0° 15° (NNE) 3,561 7.4 -11.4°
Reaches altitude 10° 06:02:30 10° 15° (NNE) 2,614 6.7 -11.0°
Maximum altitude 06:08:21 90° 112° (ESE) 920 4.4 -10.1°
Drops below altitude 10° 06:14:10 10° 197° (SSW) 2,593 6.8 -9.1°
Sets 06:16:33 0° 198° (SSW) 3,530 7.5 -8.7°
